Overview Statistics Trail Chart Weather Telemetry Raw packets
 

This is the latest recevied weather packets stored in our database for station/object W7TRD. If no packets are shown the sender has not sent any weather packets the latest 10 day(s).

<< 72 73 74 75 76 77 78 >>
Time Temp. Humidity Pressure Rain* Wind** Luminosity Snow
1788102812 13.89° C 82% 1022.2 hPa 0 mm - 178 W/m² -
1788102507 13.33° C 84% 1022.2 hPa 0 mm - 180 W/m² -
1788102207 12.78° C 85% 1022.3 hPa 0 mm - 104 W/m² -
1788101907 12.22° C 86% 1022.3 hPa 0 mm - 139 W/m² -
1788101602 11.67° C 87% 1022.2 hPa 0 mm - 126 W/m² -
1788101297 11.67° C 87% 1022.2 hPa 0 mm - 58 W/m² -
1788100993 12.22° C 87% 1022.3 hPa 0 mm - 38 W/m² -
1788100689 12.22° C 87% 1022.1 hPa 0 mm - 45 W/m² -
1788100389 11.67° C 88% 1022.1 hPa 0 mm - 45 W/m² -
1788100083 11.67° C 88% 1022.1 hPa 0 mm - 62 W/m² -
1788099778 11.67° C 89% 1022.3 hPa 0 mm - 56 W/m² -
1788099475 11.11° C 90% 1022.1 hPa 0 mm - 39 W/m² -
1788099169 10.56° C 91% 1022.2 hPa 0 mm - 37 W/m² -
1788098869 10.56° C 91% 1022.1 hPa 0 mm - 24 W/m² -
1788098563 10.56° C 91% 1022.1 hPa 0 mm - 22 W/m² -
1788098258 10.56° C 92% 1021.9 hPa 0 mm - 19 W/m² -
1788097954 10.56° C 92% 1022 hPa 0 mm - 15 W/m² -
1788097649 10° C 92% 1022 hPa 0 mm - 12 W/m² -
1788097344 10° C 92% 1021.8 hPa 0 mm - 9 W/m² -
1788097040 10.56° C 92% 1022.1 hPa 0 mm - 6 W/m² -
1788096736 10° C 92% 1022 hPa 0 mm - 4 W/m² -
1788096431 10° C 93% 1022 hPa 0 mm - 2 W/m² -
1788096127 10° C 93% 1021.9 hPa 0 mm - 1 W/m² -
1788095825 10° C 93% 1021.9 hPa 0 mm - 1 W/m² -
1788095526 10° C 92% 1021.7 hPa 0 mm - 0 W/m² -

* Rain latest hour (hover to see other rain measurements)
** Current wind speed in m/s (hover to see current wind gust speed)